Weather History for CYYT - December, 2012

Change the Weather History Date:

Thursday, December 6, 2012

  Actual Average Record
Temperature  
Mean Temperature 40 °F -  
Max Temperature 47 °F 34 °F 51 °F (1999)
Min Temperature 33 °F 22 °F 15 °F (2001)
Degree Days  
Heating Degree Days 25    
Moisture  
Dew Point 42 °F    
Average Humidity 99    
Maximum Humidity 100    
Minimum Humidity 93    
Precipitation  
Precipitation 0.31 in 0.19 in - ()
Sea Level Pressure  
Sea Level Pressure 29.62 in    
Wind  
Wind Speed 14 mph ()    
Max Wind Speed 23 mph    
Max Gust Speed 31 mph    
Visibility 11.2 miles    
Events Fog , Rain    
Averages and records for this station are not official NWS values.
T = Trace of Precipitation, MM = Missing Value Source: Averaged Metar Reports

Daily Weather History Graph

Daily Weather History Graph

Search for Another Location

Airport or City:

Trip Planner

Search our weather history database for the weather conditions in past years. The results will help you decide how hot, cold, wet, or windy it might be!

Date:

Astronomy

Dec. 06, 2012 Rise Set
Actual Time 7:34 AM NST 4:09 PM NST
Civil Twilight 6:58 AM NST 4:45 PM NST
Nautical Twilight 6:20 AM NST 5:24 PM NST
Astronomical Twilight 5:42 AM NST 6:01 PM NST
Moon No Moon Rise 11:59 AM NST (12/6)
Length of Visible Light 9h 46m
Length of Day
8h 35m
Waning Gibbous, 50% of the Moon is Illuminated
Dec 6
Waning Gibbous
Dec 6
Last Quarter
Dec 13
New
Dec 20
First Quarter
Dec 28
Full

Hourly Weather History & Observations

Time (NST) Temp. Windchill Dew Point Humidity Pressure Visibility Wind Dir Wind Speed Gust Speed Precip Events Conditions
12:30 AM 41.0 °F 33.9 °F 41.0 °F 100% 29.81 in 15.0 mi SW 12.7 mph 19.6 mph N/A   Scattered Clouds
1:30 AM 39.2 °F 31.6 °F 37.4 °F 93% 29.80 in 15.0 mi SW 12.7 mph - N/A   Scattered Clouds
2:03 AM 37.4 °F 28.9 °F 37.4 °F 100% 29.79 in 15.0 mi WSW 13.8 mph - N/A   Mostly Cloudy
2:30 AM 37 °F - 37 °F 98% 29.78 in 15 mi SW 13.8 mph - -   Partly Cloudy
2:30 AM 37.4 °F 28.5 °F 37.4 °F 100% 29.78 in 15.0 mi WSW 15.0 mph - N/A   Mostly Cloudy
3:05 AM 37.4 °F 28.5 °F 35.6 °F 93% 29.76 in 15.0 mi SW 15.0 mph 25.3 mph N/A   Mostly Cloudy
3:30 AM 37.4 °F 28.2 °F 35.6 °F 93% 29.76 in 15.0 mi SW 16.1 mph 24.2 mph N/A   Scattered Clouds
3:57 AM 37.4 °F 26.9 °F 37.4 °F 100% 29.75 in 15.0 mi SW 20.7 mph 27.6 mph N/A   Mostly Cloudy
4:30 AM 39.2 °F 29.6 °F 39.2 °F 100% 29.75 in 15.0 mi SW 19.6 mph 26.5 mph N/A   Mostly Cloudy
4:48 AM 41.0 °F 32.2 °F 39.2 °F 93% 29.75 in 15.0 mi SSW 18.4 mph - N/A   Mostly Cloudy
5:00 AM 41.0 °F 32.8 °F 39.2 °F 93% 29.74 in 15.0 mi SSW 16.1 mph 23.0 mph N/A   Mostly Cloudy
5:30 AM 41.0 °F 33.1 °F 41.0 °F 100% 29.74 in 15.0 mi SW 15.0 mph 20.7 mph N/A   Mostly Cloudy
6:11 AM 41.0 °F 34.3 °F 41.0 °F 100% 29.74 in 12.0 mi SSW 11.5 mph 18.4 mph N/A   Overcast
6:30 AM 41.0 °F 34.3 °F 41.0 °F 100% 29.73 in 12.0 mi SSW 11.5 mph 18.4 mph N/A   Mostly Cloudy
6:47 AM 41.0 °F 32.2 °F 41.0 °F 100% 29.73 in 6.0 mi South 18.4 mph - N/A   Light Drizzle
7:16 AM 42.8 °F 34.8 °F 42.8 °F 100% 29.71 in 10.0 mi South 17.3 mph 24.2 mph N/A   Overcast
7:30 AM 42.8 °F 34.5 °F 42.8 °F 100% 29.71 in 4.0 mi South 18.4 mph 26.5 mph N/A   Overcast
7:56 AM 42.8 °F 33.5 °F 42.8 °F 100% 29.70 in 15.0 mi South 23.0 mph - N/A   Overcast
8:30 AM 42 °F - 42 °F 100% 29.70 in 15 mi South 21.9 mph - -   Partly Cloudy
8:30 AM 42.8 °F 33.5 °F 42.8 °F 100% 29.70 in 15.0 mi South 23.0 mph 31.1 mph N/A   Overcast
9:30 AM 44.6 °F 36.4 °F 42.8 °F 93% 29.68 in 15.0 mi South 20.7 mph 29.9 mph N/A   Overcast
9:44 AM 44.6 °F 36.6 °F 44.6 °F 100% 29.67 in 0.2 mi South 19.6 mph 28.8 mph N/A Fog Light Drizzle
10:20 AM 46.4 °F 39.2 °F 46.4 °F 100% 29.65 in 0.5 mi South 18.4 mph 27.6 mph N/A Fog Light Drizzle
10:30 AM 46.4 °F 38.3 °F 46.4 °F 100% 29.65 in 0.5 mi South 23.0 mph 29.9 mph N/A Fog Light Drizzle
11:30 AM 46.4 °F 40.1 °F 46.4 °F 100% 29.60 in 0.5 mi South 15.0 mph 25.3 mph N/A Fog Light Drizzle
11:50 AM 46.4 °F 39.0 °F 46.4 °F 100% 29.59 in 3.0 mi South 19.6 mph 26.5 mph N/A   Overcast
12:18 PM 46.4 °F 39.8 °F 46.4 °F 100% 29.56 in 10.0 mi South 16.1 mph - N/A   Overcast
12:30 PM 48.2 °F - 48.2 °F 100% 29.55 in 10.0 mi South 17.3 mph 25.3 mph N/A   Overcast
1:30 PM 46.4 °F 40.1 °F 46.4 °F 100% 29.53 in 2.0 mi SSW 15.0 mph 23.0 mph N/A   Overcast
1:44 PM 46.4 °F 39.2 °F 46.4 °F 100% 29.52 in 0.2 mi South 18.4 mph - N/A Fog Fog
2:10 PM 46.4 °F 39.2 °F 46.4 °F 100% 29.51 in 3.0 mi South 18.4 mph 24.2 mph N/A   Light Drizzle
2:30 PM 46 °F - 46 °F 100% 29.50 in 15 mi South 15.0 mph - - Rain Light Drizzle
2:30 PM 46.4 °F 40.1 °F 46.4 °F 100% 29.50 in 15.0 mi South 15.0 mph 21.9 mph N/A   Light Drizzle
3:09 PM 46.4 °F 41.9 °F 46.4 °F 100% 29.50 in 3.0 mi SSW 9.2 mph - N/A   Light Drizzle
3:30 PM 46.4 °F 45.2 °F 46.4 °F 100% 29.50 in 8.0 mi SSW 3.5 mph - N/A   Light Drizzle
4:30 PM 44.6 °F 42.2 °F 44.6 °F 100% 29.48 in 15.0 mi WNW 4.6 mph - N/A   Overcast
5:30 PM 44.6 °F 39.7 °F 44.6 °F 100% 29.49 in 10.0 mi West 9.2 mph - N/A Rain Light Rain
6:20 PM 44.6 °F 41.4 °F 44.6 °F 100% 29.48 in 15.0 mi West 5.8 mph - N/A Rain Light Rain
6:30 PM 44.6 °F 42.2 °F 44.6 °F 100% 29.48 in 12.0 mi West 4.6 mph - N/A Rain Light Rain
7:17 PM 44.6 °F 39.7 °F 44.6 °F 100% 29.49 in 12.0 mi West 9.2 mph - N/A Rain Rain
7:30 PM 44.6 °F 39.7 °F 44.6 °F 100% 29.49 in 15.0 mi West 9.2 mph - N/A Rain Rain
8:30 PM 42 °F - 42 °F 100% 29.47 in 15 mi NNW 8.1 mph - - Rain Rain
8:30 PM 42.8 °F 37.0 °F 42.8 °F 100% 29.47 in 15.0 mi NNW 10.4 mph - N/A Rain Rain
9:00 PM 39.2 °F 31.6 °F 39.2 °F 100% 29.50 in 15.0 mi NNW 12.7 mph - N/A Rain Light Rain
9:30 PM 37.4 °F 27.5 °F 37.4 °F 100% 29.49 in 15.0 mi NNW 18.4 mph 26.5 mph N/A Rain Light Rain
10:14 PM 35.6 °F 27.5 °F 35.6 °F 100% 29.50 in 12.0 mi North 11.5 mph 17.3 mph N/A   Overcast
10:30 PM 35.6 °F 27.1 °F 35.6 °F 100% 29.50 in 15.0 mi NNW 12.7 mph 24.2 mph N/A   Overcast
11:16 PM 33.8 °F 23.5 °F 33.8 °F 100% 29.51 in 15.0 mi NNW 16.1 mph 26.5 mph N/A Rain Light Rain Showers
11:30 PM 33.8 °F 23.2 °F 33.8 °F 100% 29.51 in 15.0 mi NNW 17.3 mph 26.5 mph N/A Rain Light Rain Showers